User: anonymous   Login
Location: Unspecified
(0.0000°N, 0.0000°E)
Time: 07:59:57
(UTC+00:00)
Language:

AO-7 - Orbit

View from above orbital plane
View from above orbital plane
View from above satellite
View from above satellite

Ground track
Ground track

The orbit data is extracted from the following two-line orbital elements,

1  7530U 74089B   17328.57271300 -.00000034 +00000-0 +64355-4 0  9994
2  7530 101.6557 294.2293 0012330 012.7014 102.8090 12.53629852968722
Epoch (UTC): 24 November 2017 13:44:42
Eccentricity: 0.0012330
inclination: 101.6557°
perigee height: 1439 km
apogee height: 1459 km
right ascension of ascending node: 294.2293°
argument of perigee: 12.7014°
revolutions per day: 12.53629852
mean anomaly at epoch: 102.8090°
orbit number at epoch: 96872

The dashed part of the orbit path shows where the satellite is in the earth's shadow,  

DLR